Погода в Горном Щите

Россия / Свердловская область     56°41′21″N   60°31′10″E
темп.,
°C
ветер,
м/с
пор.,
м/с
влажн.,
%
обл.,
%
осадки,
мм/ч
давл.,
гПа
погр.,
м
28 января, чт
чт2823:00−7юз3108980 0.0 1027320
02:00−5зюз41483100 0.0 1026516
05:00−4зюз41482100 0.0 1025503
08:00−3зюз51578100 0.0 1023543
11:00−2зюз51674100 0.0 1023681
14:00−1зюз51574100 0.0 1022700
17:00−1зюз51477100 0.0 1022655
20:00−3зюз41381100 0.0 1022537
29 января, пт
пт2923:00−5зюз31184100 0.0 1022401
02:00−6зюз2788100 0.0 1023203
05:00−6зюз2489100 0.0 102377
08:00−7ююз1287100 0.0 102321
11:00−5ююз1384100 0.0 102398
14:00−2юв138498 0.0 1021125
17:00−4юв238799 0.0 102137
20:00−8вюв2389100 0.0 102158
30 января, сб
сб3023:00−10в3592100 0.0 1020108
02:00−12вюв3791100 0.0 1019153
05:00−12вюв3892100 0.0 1019239
08:00−13в2695100 0.0 1017142
11:00−10юв41091100 0.0 1016351
14:00−7юв3692100 0.0 1015354
17:00−7ююв3795100 0.6 1014356
20:00−8ю2596100 0.6 1014138
31 января, вс
вс3123:00−9юз229597 0.6 101521
02:00−10з019674 0.0 101521
05:00−11юв119780 0.1 101621
08:00−9юз269365 0.0 1016159
11:00−5зюз4118961 0.0 1017570
14:00−3зюз488539 0.0 1018646
17:00−4з258868 0.0 1019211
20:00−8ююз229498 0.0 102135
1 февраля, пн
пн123:00−10ююз229492 0.0 102021
02:00−10ююв239491 0.0 102031
05:00−9ююв3129360 0.0 1018278
08:00−8ююв5149288 0.0 1015402
11:00−5ююв6148494 0.0 1013510
14:00−2ю4994100 1.0 1011584
17:00−2юз41088100 1.4 1010873
20:00−6ююз3128941 0.0 1011468